| time (UTC) | temp F | wind direction | speed MPH | gust MPH | rain 1hr in | rain 24hr in | rain mn in | humidity % | barometer mb |
| 20260904120538 | 52 | 0 | 0.0 | 1.0 | 0.03 | 0.26 | 0.07 | 91 | 1011.1 |
| 20260904120106 | 52 | 79 | 0.0 | 0.0 | 0.04 | 0.26 | 0.07 | 91 | 1011.0 |
| 20260904115538 | 52 | 0 | 0.0 | 2.0 | 0.04 | 0.26 | 0.07 | 91 | 1011.0 |
| 20260904115039 | 52 | 0 | 0.0 | 5.0 | 0.04 | 0.26 | 0.07 | 91 | 1011.1 |
| 20260904114556 | 52 | 0 | 1.0 | 5.0 | 0.05 | 0.26 | 0.07 | 91 | 1011.1 |
| 20260904114038 | 52 | 78 | 1.0 | 5.0 | 0.05 | 0.26 | 0.07 | 91 | 1011.1 |
| 20260904113538 | 52 | 0 | 0.0 | 0.0 | 0.05 | 0.26 | 0.07 | 91 | 1011.1 |
| 20260904113103 | 52 | 0 | 0.0 | 0.0 | 0.06 | 0.26 | 0.07 | 91 | 1011.1 |
| 20260904112539 | 52 | 0 | 0.0 | 0.0 | 0.05 | 0.25 | 0.06 | 91 | 1011.1 |
| 20260904112042 | 52 | 0 | 0.0 | 0.0 | 0.05 | 0.25 | 0.06 | 91 | 1011.1 |
| 20260904111611 | 52 | 0 | 0.0 | 0.0 | 0.05 | 0.24 | 0.05 | 91 | 1011.0 |
| 20260904111038 | 52 | 0 | 0.0 | 0.0 | 0.04 | 0.23 | 0.04 | 91 | 1011.0 |
| 20260904110538 | 52 | 0 | 0.0 | 0.0 | 0.04 | 0.23 | 0.04 | 91 | 1011.1 |
| 20260904110108 | 52 | 0 | 0.0 | 0.0 | 0.03 | 0.22 | 0.03 | 91 | 1011.1 |
| 20260904105538 | 52 | 0 | 0.0 | 0.0 | 0.03 | 0.22 | 0.03 | 91 | 1011.0 |
| 20260904105038 | 52 | 0 | 0.0 | 0.0 | 0.03 | 0.22 | 0.03 | 91 | 1011.0 |
| 20260904104600 | 52 | 0 | 0.0 | 0.0 | 0.02 | 0.21 | 0.02 | 91 | 1011.0 |
| 20260904104037 | 52 | 0 | 0.0 | 0.0 | 0.02 | 0.21 | 0.02 | 91 | 1011.0 |
| 20260904103537 | 52 | 0 | 0.0 | 0.0 | 0.02 | 0.21 | 0.02 | 91 | 1011.1 |
| 20260904103056 | 52 | 0 | 0.0 | 0.0 | 0.01 | 0.20 | 0.01 | 91 | 1011.1 |
| 20260904102540 | 52 | 0 | 0.0 | 0.0 | 0.01 | 0.20 | 0.01 | 91 | 1011.0 |
| 20260904102038 | 52 | 0 | 0.0 | 0.0 | 0.00 | 0.19 | 0.00 | 91 | 1011.0 |
| 20260904101607 | 52 | 0 | 0.0 | 0.0 | 0.00 | 0.19 | 0.00 | 91 | 1010.9 |
| 20260904101038 | 52 | 0 | 0.0 | 0.0 | 0.00 | 0.19 | 0.00 | 91 | 1010.8 |
| 20260904100538 | 52 | 0 | 0.0 | 0.0 | 0.00 | 0.19 | 0.00 | 91 | 1010.7 |
| 20260904095540 | 52 | 0 | 0.0 | 0.0 | 0.00 | 0.19 | 0.00 | 91 | 1010.7 |
| 20260904095038 | 52 | 0 | 0.0 | 0.0 | 0.00 | 0.19 | 0.00 | 91 | 1010.7 |
| 20260904094555 | 52 | 0 | 0.0 | 0.0 | 0.00 | 0.19 | 0.00 | 91 | 1010.7 |
| 20260904094038 | 52 | 0 | 0.0 | 0.0 | 0.00 | 0.19 | 0.00 | 91 | 1010.6 |
| 20260904093540 | 52 | 0 | 0.0 | 0.0 | 0.00 | 0.19 | 0.00 | 91 | 1010.7 |
| 20260904093112 | 52 | 0 | 0.0 | 0.0 | 0.00 | 0.19 | 0.00 | 91 | 1010.6 |
| 20260904092543 | 52 | 0 | 0.0 | 0.0 | 0.00 | 0.19 | 0.00 | 91 | 1010.6 |
| 20260904092038 | 52 | 0 | 0.0 | 0.0 | 0.00 | 0.19 | 0.00 | 91 | 1010.6 |
| 20260904091553 | 52 | 0 | 0.0 | 0.0 | 0.00 | 0.19 | 0.00 | 91 | 1010.6 |
| 20260904091039 | 52 | 0 | 0.0 | 0.0 | 0.00 | 0.19 | 0.00 | 91 | 1010.6 |
| 20260904090538 | 52 | 0 | 0.0 | 0.0 | 0.00 | 0.19 | 0.00 | 91 | 1010.6 |
| 20260904090052 | 53 | 0 | 0.0 | 0.0 | 0.00 | 0.19 | 0.00 | 91 | 1010.6 |
| 20260904085540 | 53 | 0 | 0.0 | 0.0 | 0.00 | 0.20 | 0.00 | 91 | 1010.6 |
| 20260904085038 | 53 | 0 | 0.0 | 0.0 | 0.00 | 0.20 | 0.00 | 91 | 1010.7 |
| 20260904084555 | 53 | 0 | 0.0 | 0.0 | 0.00 | 0.20 | 0.00 | 91 | 1010.6 |
| 20260904084038 | 53 | 0 | 0.0 | 0.0 | 0.00 | 0.20 | 0.00 | 91 | 1010.6 |
| 20260904083538 | 53 | 0 | 0.0 | 0.0 | 0.00 | 0.20 | 0.00 | 91 | 1010.6 |
| 20260904083056 | 53 | 0 | 0.0 | 0.0 | 0.00 | 0.20 | 0.00 | 91 | 1010.6 |
| 20260904082538 | 53 | 0 | 0.0 | 0.0 | 0.00 | 0.20 | 0.00 | 91 | 1010.6 |
| 20260904082039 | 53 | 0 | 0.0 | 0.0 | 0.00 | 0.20 | 0.00 | 91 | 1010.6 |
| 20260904081551 | 53 | 0 | 0.0 | 0.0 | 0.00 | 0.20 | 0.00 | 91 | 1010.5 |
| 20260904081040 | 53 | 0 | 0.0 | 1.0 | 0.00 | 0.20 | 0.00 | 91 | 1010.6 |
| 20260904080539 | 53 | 0 | 0.0 | 1.0 | 0.00 | 0.20 | 0.00 | 91 | 1010.7 |
| 20260904075538 | 53 | 0 | 0.0 | 2.0 | 0.00 | 0.21 | 0.00 | 91 | 1010.7 |
| 20260904075037 | 53 | 0 | 0.0 | 0.0 | 0.00 | 0.21 | 0.00 | 91 | 1010.7 |
| 20260904074556 | 53 | 0 | 0.0 | 4.0 | 0.00 | 0.21 | 0.00 | 91 | 1010.8 |
| 20260904074037 | 53 | 0 | 0.0 | 4.0 | 0.00 | 0.21 | 0.00 | 91 | 1010.6 |
| 20260904073539 | 53 | 0 | 0.0 | 4.0 | 0.00 | 0.21 | 0.00 | 91 | 1010.6 |
| 20260904073055 | 53 | 0 | 0.0 | 2.0 | 0.00 | 0.21 | 0.00 | 91 | 1010.6 |
| 20260904072538 | 54 | 102 | 0.0 | 0.0 | 0.00 | 0.21 | 0.00 | 91 | 1010.6 |
| 20260904072038 | 54 | 0 | 0.0 | 0.0 | 0.00 | 0.21 | 0.00 | 91 | 1010.6 |
| 20260904071601 | 54 | 0 | 0.0 | 0.0 | 0.00 | 0.21 | 0.00 | 91 | 1010.6 |
| 20260904071038 | 54 | 0 | 0.0 | 0.0 | 0.00 | 0.21 | 0.00 | 91 | 1010.7 |
| 20260904070538 | 54 | 0 | 0.0 | 0.0 | 0.00 | 0.21 | 0.00 | 91 | 1010.6 |
| 20260904070100 | 54 | 0 | 0.0 | 0.0 | 0.00 | 0.21 | 0.00 | 91 | 1010.6 |
| 20260904065542 | 54 | 0 | 0.0 | 0.0 | 0.00 | 0.27 | 0.21 | 91 | 1010.6 |
| 20260904065042 | 54 | 0 | 0.0 | 0.0 | 0.00 | 0.27 | 0.21 | 91 | 1010.6 |
| 20260904064555 | 54 | 0 | 0.0 | 0.0 | 0.00 | 0.27 | 0.21 | 91 | 1010.7 |
| 20260904064042 | 54 | 0 | 0.0 | 1.0 | 0.00 | 0.27 | 0.21 | 91 | 1010.6 |
| 20260904063540 | 54 | 0 | 0.0 | 1.0 | 0.00 | 0.27 | 0.21 | 91 | 1010.6 |
| 20260904063055 | 54 | 0 | 0.0 | 1.0 | 0.00 | 0.27 | 0.21 | 91 | 1010.6 |
| 20260904062538 | 54 | 0 | 0.0 | 2.0 | 0.00 | 0.27 | 0.21 | 91 | 1010.6 |
| 20260904062038 | 54 | 0 | 0.0 | 2.0 | 0.01 | 0.27 | 0.21 | 91 | 1010.7 |
| 20260904061600 | 54 | 0 | 0.0 | 0.0 | 0.01 | 0.27 | 0.21 | 91 | 1010.6 |
| 20260904061038 | 54 | 0 | 0.0 | 0.0 | 0.01 | 0.27 | 0.21 | 91 | 1010.6 |
| 20260904060538 | 54 | 0 | 0.0 | 0.0 | 0.01 | 0.27 | 0.21 | 91 | 1010.6 |
| 20260904060100 | 54 | 0 | 0.0 | 0.0 | 0.01 | 0.27 | 0.21 | 91 | 1010.6 |
| 20260904055538 | 54 | 0 | 0.0 | 0.0 | 0.01 | 0.27 | 0.21 | 91 | 1010.6 |
| 20260904055038 | 54 | 0 | 0.0 | 0.0 | 0.01 | 0.27 | 0.21 | 91 | 1010.6 |
| 20260904054558 | 54 | 0 | 0.0 | 0.0 | 0.01 | 0.27 | 0.21 | 91 | 1010.7 |
| 20260904054038 | 54 | 0 | 0.0 | 0.0 | 0.01 | 0.27 | 0.21 | 91 | 1010.7 |
| 20260904053539 | 54 | 0 | 0.0 | 0.0 | 0.01 | 0.27 | 0.21 | 91 | 1010.7 |
| 20260904053055 | 54 | 0 | 0.0 | 0.0 | 0.01 | 0.27 | 0.21 | 91 | 1010.7 |
| 20260904052539 | 54 | 0 | 0.0 | 0.0 | 0.01 | 0.27 | 0.21 | 91 | 1010.7 |
| 20260904052039 | 54 | 0 | 0.0 | 0.0 | 0.00 | 0.26 | 0.20 | 91 | 1010.7 |
| 20260904051554 | 54 | 0 | 0.0 | 0.0 | 0.00 | 0.26 | 0.20 | 91 | 1010.8 |
| 20260904051039 | 54 | 0 | 0.0 | 0.0 | 0.00 | 0.26 | 0.20 | 91 | 1010.8 |
| 20260904050543 | 54 | 0 | 0.0 | 0.0 | 0.00 | 0.26 | 0.20 | 91 | 1010.9 |
| 20260904050056 | 54 | 0 | 0.0 | 0.0 | 0.00 | 0.26 | 0.20 | 91 | 1010.9 |
| 20260904045538 | 54 | 0 | 0.0 | 0.0 | 0.00 | 0.26 | 0.20 | 91 | 1010.9 |
| 20260904045038 | 54 | 0 | 0.0 | 0.0 | 0.00 | 0.26 | 0.20 | 91 | 1010.9 |
| 20260904044554 | 54 | 0 | 0.0 | 0.0 | 0.00 | 0.26 | 0.20 | 91 | 1010.9 |
| 20260904044039 | 54 | 0 | 0.0 | 0.0 | 0.00 | 0.26 | 0.20 | 90 | 1011.0 |
| 20260904043538 | 54 | 0 | 0.0 | 0.0 | 0.00 | 0.26 | 0.20 | 90 | 1011.0 |
| 20260904043050 | 55 | 0 | 0.0 | 0.0 | 0.00 | 0.26 | 0.20 | 90 | 1010.9 |
| 20260904042537 | 55 | 0 | 0.0 | 0.0 | 0.00 | 0.26 | 0.20 | 90 | 1011.0 |
| 20260904042038 | 55 | 0 | 0.0 | 0.0 | 0.00 | 0.26 | 0.20 | 90 | 1011.1 |
| 20260904041559 | 55 | 0 | 0.0 | 0.0 | 0.00 | 0.26 | 0.20 | 90 | 1011.0 |
| 20260904041038 | 55 | 0 | 0.0 | 0.0 | 0.00 | 0.26 | 0.20 | 90 | 1011.0 |
| 20260904040538 | 55 | 0 | 0.0 | 0.0 | 0.00 | 0.26 | 0.20 | 90 | 1010.9 |
| 20260904040055 | 55 | 0 | 0.0 | 0.0 | 0.00 | 0.26 | 0.20 | 90 | 1010.8 |
| 20260904035539 | 55 | 0 | 0.0 | 0.0 | 0.00 | 0.27 | 0.20 | 90 | 1010.8 |
| 20260904035038 | 55 | 0 | 0.0 | 0.0 | 0.00 | 0.27 | 0.20 | 90 | 1010.8 |
| 20260904034557 | 55 | 0 | 0.0 | 2.0 | 0.00 | 0.27 | 0.20 | 90 | 1010.7 |
| 20260904034038 | 55 | 0 | 0.0 | 2.0 | 0.00 | 0.27 | 0.20 | 90 | 1010.7 |
| 20260904033542 | 55 | 0 | 0.0 | 0.0 | 0.00 | 0.27 | 0.20 | 90 | 1010.6 |
| 20260904033102 | 55 | 0 | 0.0 | 1.0 | 0.00 | 0.27 | 0.20 | 90 | 1010.6 |
| 20260904032541 | 55 | 0 | 0.0 | 1.0 | 0.00 | 0.27 | 0.20 | 90 | 1010.4 |
| 20260904032042 | 55 | 0 | 0.0 | 3.0 | 0.00 | 0.27 | 0.20 | 90 | 1010.4 |
| 20260904031556 | 55 | 0 | 0.0 | 3.0 | 0.00 | 0.27 | 0.20 | 90 | 1010.3 |
| 20260904031038 | 55 | 106 | 0.0 | 0.0 | 0.00 | 0.27 | 0.20 | 90 | 1010.3 |
| 20260904030542 | 55 | 0 | 0.0 | 0.0 | 0.00 | 0.27 | 0.20 | 89 | 1010.3 |
| 20260904030059 | 55 | 0 | 0.0 | 0.0 | 0.00 | 0.27 | 0.20 | 89 | 1010.2 |
| 20260904025539 | 55 | 0 | 0.0 | 0.0 | 0.00 | 0.27 | 0.20 | 89 | 1010.2 |
| 20260904025038 | 55 | 0 | 0.0 | 0.0 | 0.00 | 0.27 | 0.20 | 89 | 1010.3 |
| 20260904024555 | 56 | 0 | 0.0 | 0.0 | 0.00 | 0.27 | 0.20 | 89 | 1010.2 |
| 20260904024038 | 56 | 0 | 0.0 | 0.0 | 0.00 | 0.27 | 0.20 | 89 | 1010.2 |
| 20260904023538 | 56 | 0 | 0.0 | 0.0 | 0.00 | 0.27 | 0.20 | 89 | 1010.1 |
| 20260904023057 | 56 | 0 | 0.0 | 0.0 | 0.00 | 0.27 | 0.20 | 89 | 1010.1 |
| 20260904022538 | 56 | 0 | 0.0 | 2.0 | 0.00 | 0.27 | 0.20 | 90 | 1010.1 |
| 20260904022038 | 56 | 0 | 0.0 | 2.0 | 0.00 | 0.27 | 0.20 | 90 | 1010.1 |
| 20260904021559 | 56 | 0 | 1.0 | 2.0 | 0.00 | 0.27 | 0.20 | 90 | 1010.1 |
| 20260904021038 | 56 | 0 | 0.0 | 0.0 | 0.00 | 0.27 | 0.20 | 90 | 1010.1 |
| 20260904020540 | 56 | 0 | 0.0 | 0.0 | 0.00 | 0.27 | 0.20 | 90 | 1010.2 |
| 20260904020052 | 56 | 0 | 0.0 | 0.0 | 0.00 | 0.27 | 0.20 | 89 | 1010.2 |
| 20260904015538 | 56 | 0 | 0.0 | 0.0 | 0.00 | 0.27 | 0.20 | 89 | 1010.1 |
| 20260904015037 | 56 | 0 | 0.0 | 0.0 | 0.00 | 0.27 | 0.20 | 89 | 1010.2 |
| 20260904014603 | 56 | 0 | 0.0 | 0.0 | 0.00 | 0.27 | 0.20 | 89 | 1010.1 |
| 20260904014038 | 56 | 0 | 0.0 | 0.0 | 0.00 | 0.27 | 0.20 | 89 | 1010.2 |
| 20260904013538 | 56 | 0 | 0.0 | 0.0 | 0.00 | 0.27 | 0.20 | 90 | 1010.1 |
| 20260904013055 | 56 | 0 | 0.0 | 0.0 | 0.00 | 0.27 | 0.20 | 90 | 1010.3 |
| 20260904012539 | 56 | 0 | 0.0 | 0.0 | 0.00 | 0.27 | 0.20 | 89 | 1010.2 |
| 20260904012039 | 56 | 0 | 0.0 | 0.0 | 0.00 | 0.27 | 0.20 | 89 | 1010.3 |
| 20260904011609 | 56 | 0 | 0.0 | 0.0 | 0.01 | 0.27 | 0.20 | 90 | 1010.4 |
| 20260904011038 | 56 | 0 | 0.0 | 0.0 | 0.01 | 0.27 | 0.20 | 90 | 1010.4 |
| 20260904010538 | 56 | 0 | 0.0 | 2.0 | 0.01 | 0.27 | 0.20 | 89 | 1010.4 |
| 20260904010128 | 56 | 0 | 0.0 | 2.0 | 0.02 | 0.27 | 0.20 | 89 | 1010.5 |
| 20260904005541 | 56 | 0 | 1.0 | 2.0 | 0.02 | 0.29 | 0.20 | 89 | 1010.5 |
| 20260904005041 | 56 | 0 | 0.0 | 0.0 | 0.02 | 0.29 | 0.20 | 89 | 1010.4 |
| 20260904004558 | 56 | 0 | 0.0 | 0.0 | 0.02 | 0.29 | 0.20 | 89 | 1010.4 |
| 20260904004043 | 56 | 0 | 0.0 | 0.0 | 0.02 | 0.29 | 0.20 | 89 | 1010.3 |
| 20260904003538 | 56 | 0 | 0.0 | 0.0 | 0.02 | 0.29 | 0.20 | 89 | 1010.2 |
| 20260904003102 | 56 | 0 | 0.0 | 0.0 | 0.02 | 0.29 | 0.20 | 89 | 1010.2 |
| 20260904002541 | 56 | 0 | 0.0 | 0.0 | 0.02 | 0.29 | 0.20 | 89 | 1010.2 |
| 20260904002046 | 56 | 0 | 0.0 | 0.0 | 0.02 | 0.29 | 0.20 | 89 | 1010.3 |
| 20260904001604 | 55 | 0 | 0.0 | 0.0 | 0.02 | 0.28 | 0.19 | 89 | 1010.2 |
| 20260904001038 | 55 | 0 | 0.0 | 1.0 | 0.04 | 0.28 | 0.19 | 89 | 1010.3 |
| 20260904000541 | 55 | 0 | 0.0 | 4.0 | 0.06 | 0.28 | 0.19 | 89 | 1010.6 |
| 20260903235541 | 55 | 0 | 0.0 | 2.0 | 0.06 | 0.44 | 0.18 | 88 | 1010.6 |
| 20260903235042 | 55 | 0 | 0.0 | 2.0 | 0.06 | 0.44 | 0.18 | 88 | 1010.5 |
| 20260903234556 | 55 | 0 | 0.0 | 2.0 | 0.06 | 0.44 | 0.18 | 87 | 1010.4 |
| 20260903234039 | 55 | 0 | 0.0 | 1.0 | 0.06 | 0.44 | 0.18 | 88 | 1010.4 |
| 20260903233542 | 55 | 0 | 0.0 | 1.0 | 0.06 | 0.44 | 0.18 | 88 | 1010.3 |
| 20260903233102 | 55 | 0 | 0.0 | 2.0 | 0.06 | 0.44 | 0.18 | 87 | 1010.3 |
| 20260903232542 | 55 | 0 | 0.0 | 2.0 | 0.06 | 0.44 | 0.18 | 87 | 1010.4 |
| 20260903232041 | 55 | 0 | 1.0 | 3.0 | 0.06 | 0.44 | 0.18 | 86 | 1010.3 |
| 20260903231601 | 55 | 0 | 0.0 | 3.0 | 0.05 | 0.43 | 0.17 | 85 | 1010.7 |
| 20260903231041 | 56 | 198 | 1.0 | 5.0 | 0.03 | 0.41 | 0.15 | 85 | 1011.0 |
| 20260903230541 | 56 | 238 | 1.0 | 5.0 | 0.01 | 0.39 | 0.13 | 84 | 1011.0 |
| 20260903230108 | 57 | 175 | 2.0 | 5.0 | 0.00 | 0.38 | 0.12 | 82 | 1011.1 |
| 20260903225542 | 57 | 192 | 2.0 | 5.0 | 0.00 | 0.38 | 0.12 | 81 | 1011.1 |
| 20260903225041 | 57 | 183 | 1.0 | 8.0 | 0.00 | 0.38 | 0.12 | 81 | 1011.0 |
| 20260903224604 | 58 | 168 | 2.0 | 8.0 | 0.00 | 0.38 | 0.12 | 80 | 1010.9 |
| 20260903224041 | 60 | 191 | 1.0 | 7.0 | 0.00 | 0.38 | 0.12 | 79 | 1010.9 |
| 20260903223543 | 61 | 188 | 3.0 | 7.0 | 0.00 | 0.38 | 0.12 | 77 | 1010.8 |
| 20260903223101 | 62 | 170 | 0.0 | 2.0 | 0.00 | 0.38 | 0.12 | 77 | 1010.6 |
| 20260903222542 | 62 | 170 | 0.0 | 2.0 | 0.00 | 0.38 | 0.12 | 79 | 1010.4 |
| 20260903222043 | 62 | 0 | 0.0 | 2.0 | 0.01 | 0.38 | 0.12 | 77 | 1010.4 |
| 20260903221557 | 62 | 170 | 0.0 | 6.0 | 0.01 | 0.38 | 0.12 | 75 | 1010.3 |
| 20260903221041 | 62 | 170 | 1.0 | 6.0 | 0.01 | 0.38 | 0.12 | 75 | 1010.3 |
| 20260903220541 | 62 | 163 | 1.0 | 6.0 | 0.01 | 0.38 | 0.12 | 73 | 1010.3 |
| 20260903220123 | 62 | 200 | 2.0 | 5.0 | 0.01 | 0.38 | 0.12 | 78 | 1010.4 |
| 20260903215539 | 61 | 0 | 0.0 | 3.0 | 0.01 | 0.39 | 0.12 | 79 | 1010.4 |
| 20260903215041 | 61 | 228 | 0.0 | 5.0 | 0.01 | 0.39 | 0.12 | 78 | 1010.4 |
| 20260903214600 | 60 | 252 | 0.0 | 6.0 | 0.01 | 0.39 | 0.12 | 77 | 1010.5 |
| 20260903214041 | 60 | 170 | 2.0 | 6.0 | 0.01 | 0.39 | 0.12 | 76 | 1010.4 |
| 20260903213541 | 60 | 230 | 0.0 | 5.0 | 0.01 | 0.39 | 0.12 | 79 | 1010.6 |
| 20260903213105 | 60 | 179 | 1.0 | 7.0 | 0.01 | 0.39 | 0.12 | 79 | 1010.7 |
| 20260903212541 | 60 | 184 | 2.0 | 7.0 | 0.01 | 0.39 | 0.12 | 78 | 1010.7 |
| 20260903212042 | 60 | 224 | 2.0 | 6.0 | 0.00 | 0.38 | 0.11 | 79 | 1010.8 |
| 20260903211600 | 59 | 298 | 1.0 | 8.0 | 0.00 | 0.38 | 0.11 | 79 | 1010.8 |
| 20260903211042 | 59 | 189 | 2.0 | 9.0 | 0.00 | 0.38 | 0.11 | 78 | 1010.8 |
| 20260903210542 | 59 | 233 | 3.0 | 9.0 | 0.00 | 0.38 | 0.11 | 79 | 1010.8 |
| 20260903210106 | 59 | 199 | 2.0 | 9.0 | 0.00 | 0.38 | 0.11 | 81 | 1010.7 |
| 20260903205541 | 59 | 182 | 3.0 | 9.0 | 0.00 | 0.45 | 0.11 | 80 | 1010.9 |
| 20260903205044 | 59 | 176 | 1.0 | 7.0 | 0.00 | 0.45 | 0.11 | 81 | 1010.8 |
| 20260903204600 | 59 | 227 | 3.0 | 7.0 | 0.00 | 0.45 | 0.11 | 80 | 1010.8 |
| 20260903204042 | 59 | 231 | 3.0 | 9.0 | 0.01 | 0.45 | 0.11 | 80 | 1010.8 |
| 20260903203539 | 59 | 217 | 3.0 | 11.0 | 0.01 | 0.45 | 0.11 | 80 | 1010.8 |
| 20260903203131 | 59 | 193 | 3.0 | 11.0 | 0.01 | 0.45 | 0.11 | 81 | 1010.8 |
| 20260903202542 | 59 | 207 | 3.0 | 10.0 | 0.01 | 0.45 | 0.11 | 82 | 1010.7 |
| 20260903202042 | 59 | 232 | 2.0 | 5.0 | 0.01 | 0.45 | 0.11 | 83 | 1010.7 |
| 20260903201558 | 59 | 0 | 1.0 | 5.0 | 0.01 | 0.45 | 0.11 | 84 | 1010.7 |
| 20260903201042 | 59 | 0 | 1.0 | 5.0 | 0.01 | 0.45 | 0.11 | 84 | 1010.7 |
| 20260903200539 | 59 | 0 | 0.0 | 4.0 | 0.01 | 0.45 | 0.11 | 84 | 1010.7 |
| 20260903200056 | 58 | 0 | 1.0 | 4.0 | 0.01 | 0.45 | 0.11 | 84 | 1010.8 |
| 20260903195548 | 59 | 0 | 0.0 | 6.0 | 0.01 | 0.61 | 0.11 | 85 | 1010.7 |
| 20260903195041 | 59 | 0 | 0.0 | 6.0 | 0.01 | 0.61 | 0.11 | 83 | 1010.8 |
| 20260903194557 | 59 | 0 | 2.0 | 6.0 | 0.01 | 0.61 | 0.11 | 82 | 1010.9 |
| 20260903194042 | 59 | 217 | 2.0 | 7.0 | 0.00 | 0.60 | 0.10 | 81 | 1010.8 |
| 20260903193546 | 59 | 186 | 3.0 | 7.0 | 0.01 | 0.60 | 0.10 | 79 | 1010.8 |
| 20260903193103 | 59 | 201 | 3.0 | 7.0 | 0.01 | 0.60 | 0.10 | 80 | 1010.7 |
| 20260903192539 | 59 | 171 | 3.0 | 6.0 | 0.01 | 0.60 | 0.10 | 82 | 1010.7 |
| 20260903192039 | 59 | 273 | 1.0 | 6.0 | 0.01 | 0.60 | 0.10 | 83 | 1010.7 |
| 20260903191601 | 59 | 238 | 1.0 | 8.0 | 0.01 | 0.60 | 0.10 | 84 | 1010.9 |
| 20260903191039 | 59 | 0 | 3.0 | 8.0 | 0.01 | 0.60 | 0.10 | 82 | 1010.8 |
| 20260903190544 | 59 | 200 | 2.0 | 6.0 | 0.01 | 0.60 | 0.10 | 83 | 1011.0 |
| 20260903190056 | 59 | 240 | 1.0 | 6.0 | 0.01 | 0.60 | 0.10 | 85 | 1010.9 |
| 20260903185541 | 58 | 160 | 1.0 | 5.0 | 0.01 | 0.66 | 0.10 | 84 | 1011.0 |
| 20260903185041 | 58 | 182 | 0.0 | 8.0 | 0.01 | 0.66 | 0.10 | 84 | 1010.9 |
| 20260903184601 | 58 | 215 | 2.0 | 8.0 | 0.01 | 0.66 | 0.10 | 84 | 1010.9 |
| 20260903184038 | 58 | 215 | 3.0 | 8.0 | 0.01 | 0.66 | 0.10 | 83 | 1010.9 |
| 20260903183539 | 58 | 197 | 2.0 | 7.0 | 0.00 | 0.65 | 0.09 | 83 | 1010.9 |
| 20260903183102 | 58 | 184 | 2.0 | 6.0 | 0.00 | 0.65 | 0.09 | 83 | 1010.9 |
| 20260903182539 | 58 | 0 | 1.0 | 8.0 | 0.00 | 0.65 | 0.09 | 83 | 1010.8 |
| 20260903182041 | 59 | 242 | 2.0 | 8.0 | 0.00 | 0.65 | 0.09 | 83 | 1010.9 |
| 20260903181604 | 59 | 123 | 2.0 | 7.0 | 0.00 | 0.65 | 0.09 | 82 | 1010.8 |
| 20260903181038 | 59 | 231 | 2.0 | 10.0 | 0.00 | 0.65 | 0.09 | 82 | 1010.7 |
| 20260903180538 | 59 | 219 | 2.0 | 10.0 | 0.00 | 0.65 | 0.09 | 82 | 1010.7 |
| 20260903180104 | 60 | 263 | 4.0 | 10.0 | 0.00 | 0.65 | 0.09 | 81 | 1010.5 |
| 20260903175540 | 60 | 193 | 2.0 | 5.0 | 0.00 | 0.70 | 0.09 | 85 | 1010.4 |
| 20260903175039 | 59 | 176 | 0.0 | 5.0 | 0.00 | 0.70 | 0.09 | 86 | 1010.4 |
| 20260903174604 | 59 | 241 | 2.0 | 11.0 | 0.00 | 0.70 | 0.09 | 85 | 1010.4 |
| 20260903174042 | 58 | 221 | 3.0 | 11.0 | 0.00 | 0.70 | 0.09 | 86 | 1010.4 |
| 20260903173542 | 58 | 218 | 2.0 | 6.0 | 0.00 | 0.70 | 0.09 | 87 | 1010.3 |
| 20260903173101 | 58 | 222 | 2.0 | 6.0 | 0.00 | 0.70 | 0.09 | 89 | 1010.4 |
| 20260903172538 | 58 | 0 | 2.0 | 5.0 | 0.00 | 0.70 | 0.09 | 90 | 1010.4 |
| 20260903172038 | 58 | 171 | 2.0 | 4.0 | 0.00 | 0.70 | 0.09 | 92 | 1010.4 |
| 20260903171614 | 58 | 0 | 0.0 | 0.0 | 0.00 | 0.70 | 0.09 | 93 | 1010.6 |
| 20260903171039 | 57 | 0 | 0.0 | 0.0 | 0.00 | 0.70 | 0.09 | 93 | 1010.6 |
| 20260903170538 | 57 | 0 | 0.0 | 0.0 | 0.00 | 0.70 | 0.09 | 92 | 1010.6 |
| 20260903165538 | 56 | 0 | 0.0 | 0.0 | 0.00 | 0.70 | 0.09 | 92 | 1010.8 |
| 20260903165039 | 56 | 0 | 0.0 | 0.0 | 0.00 | 0.70 | 0.09 | 92 | 1010.7 |
| 20260903164637 | 56 | 0 | 0.0 | 0.0 | 0.00 | 0.70 | 0.09 | 92 | 1010.7 |
| 20260903164039 | 55 | 0 | 0.0 | 0.0 | 0.00 | 0.70 | 0.09 | 92 | 1010.8 |
| 20260903163538 | 55 | 0 | 0.0 | 0.0 | 0.00 | 0.70 | 0.09 | 92 | 1010.8 |
| 20260903163103 | 56 | 0 | 0.0 | 0.0 | 0.00 | 0.70 | 0.09 | 93 | 1010.8 |
| 20260903162538 | 56 | 0 | 0.0 | 0.0 | 0.00 | 0.70 | 0.09 | 93 | 1010.8 |
| 20260903162038 | 55 | 0 | 0.0 | 1.0 | 0.01 | 0.70 | 0.09 | 93 | 1010.7 |
| 20260903161601 | 55 | 0 | 0.0 | 1.0 | 0.02 | 0.70 | 0.09 | 93 | 1010.7 |
| 20260903161039 | 54 | 0 | 0.0 | 1.0 | 0.02 | 0.70 | 0.09 | 92 | 1010.8 |
| 20260903160538 | 54 | 0 | 0.0 | 1.0 | 0.03 | 0.70 | 0.09 | 92 | 1010.8 |
| 20260903160056 | 54 | 0 | 0.0 | 1.0 | 0.04 | 0.70 | 0.09 | 92 | 1010.8 |
| 20260903155538 | 54 | 0 | 0.0 | 1.0 | 0.04 | 0.70 | 0.09 | 92 | 1010.8 |
| 20260903155038 | 54 | 0 | 0.0 | 0.0 | 0.04 | 0.70 | 0.09 | 92 | 1010.8 |
| 20260903154606 | 54 | 0 | 0.0 | 0.0 | 0.05 | 0.70 | 0.09 | 92 | 1010.8 |
| 20260903154041 | 53 | 0 | 0.0 | 0.0 | 0.05 | 0.70 | 0.09 | 92 | 1010.8 |
| 20260903153538 | 53 | 0 | 0.0 | 0.0 | 0.05 | 0.70 | 0.09 | 92 | 1010.8 |
| 20260903153103 | 53 | 0 | 0.0 | 2.0 | 0.05 | 0.70 | 0.09 | 92 | 1010.9 |
| 20260903152542 | 53 | 0 | 0.0 | 2.0 | 0.05 | 0.70 | 0.09 | 92 | 1010.9 |
| 20260903152043 | 53 | 0 | 0.0 | 2.0 | 0.05 | 0.69 | 0.08 | 92 | 1010.9 |
| 20260903151604 | 53 | 0 | 0.0 | 2.0 | 0.04 | 0.68 | 0.07 | 92 | 1010.9 |
| 20260903151041 | 53 | 0 | 0.0 | 0.0 | 0.04 | 0.68 | 0.07 | 92 | 1011.0 |
| 20260903150541 | 53 | 0 | 0.0 | 0.0 | 0.04 | 0.67 | 0.06 | 92 | 1010.9 |
| 20260903150101 | 53 | 0 | 0.0 | 0.0 | 0.03 | 0.66 | 0.05 | 92 | 1010.9 |
| 20260903145538 | 53 | 0 | 0.0 | 0.0 | 0.03 | 0.66 | 0.05 | 92 | 1010.9 |
| 20260903145041 | 53 | 0 | 0.0 | 0.0 | 0.03 | 0.66 | 0.05 | 92 | 1010.8 |
| 20260903144607 | 53 | 0 | 0.0 | 1.0 | 0.02 | 0.65 | 0.04 | 92 | 1010.9 |
| 20260903144045 | 53 | 0 | 0.0 | 2.0 | 0.02 | 0.65 | 0.04 | 92 | 1010.9 |
| 20260903143541 | 53 | 0 | 0.0 | 3.0 | 0.02 | 0.65 | 0.04 | 92 | 1010.8 |
| 20260903143058 | 53 | 183 | 1.0 | 3.0 | 0.02 | 0.65 | 0.04 | 92 | 1010.7 |
| 20260903142541 | 53 | 0 | 0.0 | 2.0 | 0.02 | 0.65 | 0.04 | 92 | 1010.6 |
| 20260903142042 | 53 | 0 | 0.0 | 3.0 | 0.01 | 0.64 | 0.03 | 92 | 1010.6 |
| 20260903141554 | 53 | 203 | 0.0 | 3.0 | 0.01 | 0.64 | 0.03 | 92 | 1010.6 |
| 20260903141041 | 52 | 201 | 0.0 | 4.0 | 0.01 | 0.64 | 0.03 | 92 | 1010.4 |
| 20260903140542 | 52 | 191 | 1.0 | 4.0 | 0.00 | 0.63 | 0.02 | 92 | 1010.4 |
| 20260903140056 | 52 | 229 | 0.0 | 3.0 | 0.00 | 0.63 | 0.02 | 92 | 1010.5 |
| 20260903135542 | 52 | 0 | 0.0 | 3.0 | 0.00 | 0.63 | 0.02 | 92 | 1010.6 |
| 20260903135039 | 52 | 0 | 0.0 | 3.0 | 0.00 | 0.63 | 0.02 | 92 | 1010.4 |
| 20260903134553 | 52 | 0 | 0.0 | 3.0 | 0.00 | 0.63 | 0.02 | 92 | 1010.2 |
| 20260903134039 | 52 | 244 | 0.0 | 2.0 | 0.00 | 0.63 | 0.02 | 92 | 1010.3 |
| 20260903133545 | 52 | 0 | 0.0 | 6.0 | 0.00 | 0.63 | 0.02 | 92 | 1010.1 |
| 20260903133105 | 52 | 0 | 0.0 | 6.0 | 0.00 | 0.63 | 0.02 | 92 | 1010.0 |
| 20260903132538 | 52 | 0 | 2.0 | 6.0 | 0.00 | 0.63 | 0.02 | 92 | 1009.9 |
| 20260903132046 | 52 | 0 | 0.0 | 4.0 | 0.00 | 0.63 | 0.02 | 92 | 1009.9 |
| 20260903131557 | 52 | 0 | 0.0 | 2.0 | 0.00 | 0.63 | 0.02 | 92 | 1009.9 |
| 20260903131041 | 52 | 0 | 0.0 | 0.0 | 0.00 | 0.63 | 0.02 | 92 | 1009.9 |
| 20260903130543 | 51 | 0 | 0.0 | 0.0 | 0.00 | 0.63 | 0.02 | 92 | 1010.0 |
| 20260903125538 | 51 | 0 | 0.0 | 0.0 | 0.00 | 0.63 | 0.02 | 92 | 1010.0 |
| 20260903125040 | 51 | 0 | 0.0 | 0.0 | 0.00 | 0.63 | 0.02 | 92 | 1010.0 |
| 20260903124619 | 51 | 0 | 0.0 | 0.0 | 0.00 | 0.63 | 0.02 | 92 | 1010.1 |
| 20260903124046 | 51 | 0 | 0.0 | 0.0 | 0.00 | 0.63 | 0.02 | 92 | 1010.1 |
| 20260903123546 | 51 | 0 | 0.0 | 0.0 | 0.00 | 0.63 | 0.02 | 92 | 1010.1 |
| 20260903123057 | 51 | 0 | 0.0 | 0.0 | 0.00 | 0.63 | 0.02 | 92 | 1010.1 |
| 20260903122538 | 51 | 0 | 0.0 | 0.0 | 0.00 | 0.63 | 0.02 | 92 | 1010.1 |
| 20260903122038 | 51 | 0 | 0.0 | 0.0 | 0.00 | 0.63 | 0.02 | 92 | 1010.1 |
| 20260903121600 | 51 | 0 | 0.0 | 0.0 | 0.00 | 0.63 | 0.02 | 91 | 1010.1 |
| 20260903121038 | 51 | 0 | 0.0 | 0.0 | 0.00 | 0.63 | 0.02 | 91 | 1010.1 |